479  
ASUS41 KOKX 221308  
RWROKX  
 
REGIONAL WEATHER ROUNDUP  
NATIONAL WEATHER SERVICE NEW YORK NY  
900 AM EDT SUN OCT 22 2017  
 
NOTE: "FAIR" INDICATES FEW OR NO CLOUDS BELOW 12,000 FEET WITH NO  
SIGNIFICANT WEATHER AND/OR S TO VISIBILITY
.  
 
NYZ071-072-176-178-NJZ106-104-221400-  
NEW YORK CITY METRO AREA  
 
CITY SKY/WX TMP DP RH WIND PRES REMARKS
 
CENTRAL PARK SUNNY 62 48 60 CALM 30.44R  
BRONX BOT GARD N/A 63 50 63 N2 30.43R  
LAGUARDIA APRT PTSUNNY 63 54 72 CALM 30.41R  
KENNEDY INTL PTSUNNY 60 55 83 CALM 30.42R  
BREEZY POINT N/A 61 N/A N/A W3 N/A  
NEWARK/LIBERTY PTSUNNY 57 49 74 CALM 30.42R  
TETERBORO MOSUNNY 56 46 69 CALM 30.41R  

 
 
NYZ177-179-078>081-221400-  
LONG ISLAND NEW YORK  
 
CITY SKY/WX TMP DP RH WIND PRES REMARKS
 
JONES BEACH N/A 63 N/A N/A CALM N/A  
MATINECOCK PT N/A 59 N/A N/A SW3 N/A  
FARMINGDALE SUNNY 57 52 83 CALM 30.42R  
MACARTHUR/ISP MOSUNNY 57 54 89 CALM 30.42R  
SHIRLEY SUNNY 59 55 87 CALM 30.42R  
MT SINAI HARB N/A N/A N/A N/A MISG N/A  
WESTHAMPTON SUNNY 56 52 86 CALM 30.43R  
EAST HAMPTON FAIR 55 52 90 CALM 30.41S  
MONTAUK N/A 63 60 90 CALM 30.42R  

 
 
NYZ052-065-067-221400-  
HUDSON VALLEY  
 
CITY SKY/WX TMP DP RH WIND PRES REMARKS
 
WHITE PLAINS MOSUNNY 60 46 59 NW3 30.41R  
LARCHMONT HARB N/A 55 N/A N/A MISG N/A  
CROTON ON HUDS N/A 55 N/A N/A CALM N/A  
NEWBURGH MOSUNNY 52 46 82 CALM 30.42R  
MONTGOMERY CLOUDY 49 46 90 CALM 30.41R  
POUGHKEEPSIE CLOUDY 46 43 89 CALM 30.41S  
ALBANY PTSUNNY 45 43 93 CALM 30.42R  

 
 
NJZ001-105-106-008-010-013-015-019>022-104-221400-  
NEW JERSEY  
 
CITY SKY/WX TMP DP RH WIND PRES REMARKS
 
NEWARK/LIBERTY PTSUNNY 57 49 74 CALM 30.42R  
TETERBORO MOSUNNY 56 46 69 CALM 30.41R  
CALDWELL MOSUNNY 50 47 89 CALM 30.43R  
SOMERVILLE MOSUNNY 47 45 93 CALM 30.41R  
LINDEN FAIR 55 46 73 CALM 30.42S  
PERTH AMBOY N/A 52 N/A N/A W3 N/A  
SUSSEX MOSUNNY 45 44 97 CALM 30.42S  
ANDOVER N/A 48 48 100 CALM 30.42S  
TRENTON MOSUNNY 53 47 79 CALM 30.42R  
MILLVILLE CLOUDY 53 53 100 CALM 30.42R  
ATLANTIC CITY FOG 53 53 100 CALM 30.42R VSB 1/4  
WRIGHTSTOWN FOG 48 48 99 CALM 30.40R VSB 1/4  
TOMS RIVER FOG 50 50 100 CALM 30.43R VSB 1/4  
BELMAR SUNNY 57 53 86 CALM 30.43R  

 
 
PAZ047>061-062-071-221400-  
EASTERN PENNSYLVANIA  
 
CITY SKY/WX TMP DP RH WIND PRES REMARKS
 
PHILADELPHIA PTSUNNY 54 53 97 CALM 30.43R  
ALLENTOWN CLOUDY 49 44 83 CALM 30.42R  
SCRANTON MOSUNNY 51 44 77 CALM 30.41S  

 
 
CTZ002-004>006-009-010-012-RIZ004-006-007-MAZ004-011-015-221400-  
SOUTHERN NEW ENGLAND  
IN CT  
 
CITY SKY/WX TMP DP RH WIND PRES REMARKS
 
BRADLEY INTL PTSUNNY 50 46 86 CALM 30.42R  
HARTFORD CLOUDY 51 49 92 CALM 30.43R  
DANBURY CLOUDY 49 45 86 CALM 30.44R  
WTRBURY/OXFORD MOSUNNY 54 46 74 CALM 30.43R  
NORWALK HARBOR N/A 52 N/A N/A N5 N/A  
BRIDGEPORT MOSUNNY 56 49 77 N5 30.42R  
MERIDEN PTSUNNY 49 47 93 CALM 30.43R  
NEW HAVEN MOSUNNY 55 51 86 CALM 30.42R  
CHESTER FAIR 61 48 63 CALM 30.42R  
GROTON MOSUNNY 56 50 80 NE3 30.41R  
WILIMANTIC CLOUDY 49 45 86 N3 30.43R  
 
IN RI  
 
CITY SKY/WX TMP DP RH WIND PRES REMARKS
 
PROVIDENCE PTSUNNY 57 51 80 CALM 30.42R  
BLOCK ISLAND MOSUNNY 64 59 83 W6 30.42R  
WESTERLY MOSUNNY 55 51 86 CALM 30.42R  
IN MA  
 
CITY SKY/WX TMP DP RH WIND PRES REMARKS
 
BOSTON PTSUNNY 63 47 55 CALM 30.41R  
WORCESTER MOSUNNY 60 46 59 W3 30.42R  
WESTFIELD MOSUNNY 50 47 89 N3 30.43R  
PROVINCETOWN MOSUNNY 61 55 81 W5 30.41R  
NANTUCKET MOSUNNY 62 62 100 SW8 30.41R  

 
 
ANZ330-335-338-340-345-350-353-355-221400-  
COASTAL MARINE OBSERVATIONS  
 
 
STATION/POSITION TIME SKY/WX TEMP WIND PRES VSBY WAVE
 
AIR SEA DIR/SP/G HT/PER  
(UTC) (F) (DEG/KT/KT) (MB) (MI) (FT/S)  
NY HARB ENTRANCE 1250 64 64 210/ 4/ 4 1029.2 2/ 8  
20 S FIRE ISLAND 1250 64 64 220/ 4/ 4 1029.9 2/ 8  
GREAT SOUTH BAY 1230 60 61 40/ 2/ 4 N/A  
15 E BARNEGAT LI NOT AVBL  
HUDSON CANYON 1150 64 64 180/ 4/ 4 1029.1 2/ 9  
KINGS POINT 1224 56 65 210/ 2/ 2 1030.4  
EXECUTION ROCKS 1230 61 270/ 4/ 4 N/A  
WESTERN LI SOUND 1219 59 340/ 4/ 4 N/A 0  
CENTRAL LI SOUND NOT AVBL  
EASTERN LI SOUND NOT AVBL  
ROBBINS REEF 1248 57 280/ 7/ 8 1030.7  

 
 
>>>>>>>>>>>>>>>>>>>>>>>>>>>> KEY <<<<<<<<<<<<<<<<<<<<<<<<<<<  
> <  
> SKY/WX - SKY CONDITION/PRESENT WEATHER <  
> TMP - TEMPERATURE IN FAHRENHEIT <  
> DP - DEW POINT IN FAHRENHEIT <  
> RH - RELATIVE HUMIDITY IN PERCENT <  
> WIND - DIRECTION (FROM) AND SPEED IN MPH <  
> PRES - MEAN SEA LEVEL PRESSURE (INCHES OF HG) <  
> WCI - WIND CHILL INDEX <  
> VSB - VISIBILITY IN MILES <  
> HX - HEAT INDEX <  
> TC - TEMPERATURE IN CELSIUS <  
> VRB - VARIABLE WIND DIRECTION <  
> <  
>>>>>>>>>>>>>>>>>>>>>>>>>>>> KEY <<<<<<<<<<<<<<<<<<<<<<<<<<<  
 
 
CLICK HERE TO GO TO PREVIOUS BULLETINS.

The Nexlab NY Page
The Nexlab NJ Page
The Nexlab CT Page Main Text Page